Powrót do katalogu

SAUDICOMSAT 2

AktywnyŁącznośćSSO
NORAD 28370·PAYLOAD·🇸🇦 Saudi Arabia

Wystrzelony Jun 29, 2004 z Baikonur Cosmodrome

Loading…

Następne Przeloty (najbliższe 24 godziny)

TLE

ŚwieżeSource: Space-Track

Epoka: Sep 14, 2026, 11:41 UTC

1 28370U 04025E   26257.48722667  .00000181  00000-0  58440-4 0  9990
2 28370  98.6650 272.2619 0055358 350.2877   9.7241 14.50024340173044

Śledź SAUDICOMSAT 2 w czasie rzeczywistym z AllMySat

Download on the App Store